TimeCST,TemperatureF,Dew PointF,Humidity,Sea Level PressureIn,VisibilityMPH,Wind Direction,Wind SpeedMPH,Gust SpeedMPH,PrecipitationIn,Events,Conditions,WindDirDegrees,DateUTC
12:54 AM,32.0,28.4,87,29.73,6.0,West,8.1,-,N/A,,Overcast,270,2012-12-17 06:54:00
12:56 AM,32.0,28.0,85,29.74,6.0,West,8.1,-,N/A,,Overcast,280,2012-12-17 06:56:00
1:56 AM,30.9,27.0,85,29.74,7.0,West,9.2,-,N/A,,Overcast,280,2012-12-17 07:56:00
2:56 AM,30.9,26.1,82,29.74,7.0,NNW,6.9,-,N/A,,Overcast,330,2012-12-17 08:56:00
3:56 AM,30.0,24.1,79,29.74,7.0,WNW,6.9,-,N/A,,Overcast,290,2012-12-17 09:56:00
4:56 AM,28.9,24.1,82,29.75,7.0,WNW,6.9,-,N/A,,Overcast,300,2012-12-17 10:56:00
5:56 AM,28.9,24.1,82,29.76,6.0,West,6.9,-,N/A,,Haze,280,2012-12-17 11:56:00
6:56 AM,28.0,23.0,81,29.76,5.0,NNW,8.1,-,N/A,,Haze,340,2012-12-17 12:56:00
7:56 AM,28.0,21.9,78,29.76,4.0,North,3.5,-,N/A,,Haze,360,2012-12-17 13:56:00
8:56 AM,28.0,21.9,78,29.75,3.0,North,6.9,-,N/A,,Haze,10,2012-12-17 14:56:00
9:56 AM,28.0,21.9,78,29.75,4.0,Calm,Calm,-,N/A,,Haze,0,2012-12-17 15:56:00
10:56 AM,28.0,21.9,78,29.74,6.0,NE,4.6,-,N/A,,Haze,50,2012-12-17 16:56:00
11:56 AM,28.9,21.9,75,29.74,7.0,Calm,Calm,-,N/A,,Overcast,0,2012-12-17 17:56:00
12:56 PM,28.9,23.0,78,29.73,6.0,Calm,Calm,-,N/A,,Haze,0,2012-12-17 18:56:00
1:56 PM,30.0,23.0,75,29.71,7.0,West,4.6,-,N/A,,Overcast,270,2012-12-17 19:56:00
2:21 PM,28.4,23.0,80,29.70,8.0,Calm,Calm,-,N/A,,Overcast,0,2012-12-17 20:21:00
2:56 PM,28.9,23.0,78,29.72,8.0,Calm,Calm,-,N/A,,Overcast,0,2012-12-17 20:56:00
3:56 PM,30.0,21.9,72,29.72,8.0,Calm,Calm,-,N/A,,Overcast,0,2012-12-17 21:56:00
6:56 PM,30.0,23.0,75,29.73,9.0,NNW,4.6,-,N/A,,Overcast,340,2012-12-18 00:56:00
7:21 PM,30.2,23.0,75,29.72,9.0,North,3.5,-,N/A,,Overcast,360,2012-12-18 01:21:00
7:56 PM,28.9,23.0,78,29.73,9.0,NE,4.6,-,N/A,,Overcast,40,2012-12-18 01:56:00
8:56 PM,28.9,21.9,75,29.73,9.0,NE,3.5,-,N/A,,Overcast,40,2012-12-18 02:56:00
9:47 PM,28.4,23.0,80,29.72,9.0,Calm,Calm,-,N/A,,Overcast,0,2012-12-18 03:47:00
9:56 PM,28.0,23.0,81,29.74,9.0,Calm,Calm,-,N/A,,Overcast,0,2012-12-18 03:56:00
10:56 PM,28.0,23.0,81,29.75,8.0,Calm,Calm,-,N/A,,Overcast,0,2012-12-18 04:56:00
11:56 PM,28.0,23.0,81,29.75,8.0,Calm,Calm,-,N/A,,Overcast,0,2012-12-18 05:56:00